Location: Makanda
(37.6176°N, 89.2090°W)
Time: 01:53:34
(UTC+00:00)

Cosmos 2366 rocket - Pass Details

Date: 23 September 2019
Orbit: 956 x 997 km, 82.9° (Epoch: 20 October)

Event Time Altitude Azimuth Distance (km) Brightness Sun altitude
Rises 01:45:11 0° 354° (N) 3,723 7.4 -22.5°
Reaches altitude 10° 01:47:43 10° 356° (N) 2,771 6.6 -22.9°
Maximum altitude 01:54:06 79° 83° (E) 1,015 3.9 -24.1°
Enters shadow 01:56:55 36° 165° (SSE) 1,526 4.7 -24.7°
